Weather observations for the past three days for
Ann Arbor, Ann Arbor Municipal Airport
Imperial (Metric)
Date Time (edt) Wind (mph) Vis. (mi.) Weather Sky Cond. Temperature (ºF) Relative Humidity Wind Chill (°F) Heat Index (°F) Pressure Precipitation (in)
Air Dwpt 6 hour altimeter (in) sea level (mb) 1 hr 3 hr 6 hr
Max. Min.
19 14:53 SW 7 10.00 A Few Clouds FEW050 75.9 55 48% 78 30.17 1021.5
19 13:53 Calm 10.00 Fair CLR 75.9 54 77 57 47% 78 30.18 1021.9
19 12:53 W 6 10.00 Mostly Cloudy BKN048 75 54 48% 78 30.2 1022.4
19 11:53 Vrbl 3 10.00 A Few Clouds FEW045 73 53.1 50% 30.2 1022.6
19 10:53 Calm 10.00 A Few Clouds FEW041 73 57 57% 30.2 1022.6
19 09:53 SW 7 10.00 Fair CLR 70 57 64% 30.22 1023.0
19 08:53 SW 5 10.00 Fair CLR 66 57.9 75% 30.22 1022.9
19 07:53 Calm 10.00 Fair CLR 57 55.9 57 48 96% 30.2 1022.6
19 06:53 Calm 0.25 Fog CLR 50 50 100% 30.19 1022.2
19 05:53 Calm 0.75 Fog/Mist CLR 48.9 48 97% 30.18 1021.8
19 04:53 Calm 10.00 Fair CLR 50 48.9 96% 30.17 1021.5
19 03:53 Calm 2.50 Fog/Mist CLR 51.1 51.1 100% 30.17 1021.5
19 02:53 Calm 0.75 Fog/Mist CLR 50 48.9 96% 30.18 1021.8
19 01:52 Calm 1.25 Fog/Mist CLR 52 51.1 70 50 97% 30.18 1021.8
19 00:53 Calm 10.00 Fair CLR 53.1 52 96% 30.17 1021.6
18 23:53 Calm 10.00 Fair CLR 54 52 93% 30.16 1021.2
18 22:53 Calm 10.00 Fair CLR 55 53.1 93% 30.16 1021.0
18 21:53 Calm 8.00 Fair CLR 55.9 53.1 90% 30.15 1020.8
18 20:53 N 5 10.00 Fair CLR 66.9 51.1 57% 30.14 1020.4
18 19:53 N 8 10.00 Fair CLR 70 50 75 69.1 49% 30.14 1020.2
18 18:53 N 10 10.00 Partly Cloudy FEW049 SCT060 72 52 50% 30.13 1020.0
18 17:53 N 9 10.00 A Few Clouds FEW060 73 53.1 50% 30.13 1020.1
18 16:53 NW 10 10.00 A Few Clouds FEW060 73.9 53.1 48% 30.13 1020.0
18 15:53 NW 8 G 16 10.00 Partly Cloudy FEW050 SCT060 75 55 50% 78 30.14 1020.3
18 14:53 N 9 10.00 Mostly Cloudy SCT047 BKN060 72 53.1 52% 30.14 1020.2
18 13:53 Vrbl 5 10.00 Mostly Cloudy SCT041 BKN050 71.1 54 73 60.1 55% 30.14 1020.4
18 12:53 NW 12 10.00 Partly Cloudy SCT039 70 54 57% 30.14 1020.4
18 11:53 N 12 10.00 Partly Cloudy SCT036 68 55 63% 30.14 1020.4
18 10:53 N 10 10.00 A Few Clouds FEW023 FEW028 68 55 63% 30.14 1020.2
18 09:53 N 9 10.00 Partly Cloudy SCT017 64 55.9 75% 30.13 1020.0
18 08:53 NW 9 10.00 A Few Clouds FEW013 63 55.9 78% 30.12 1019.4
18 07:53 N 7 10.00 A Few Clouds FEW011 60.1 55 63 57 84% 30.1 1019.0
18 06:53 N 6 10.00 Fair CLR 57 54 90% 30.08 1018.3
18 05:53 N 7 10.00 Fair CLR 57 53.1 87% 30.07 1017.8
18 04:53 N 10 10.00 Fair CLR 57.9 53.1 84% 30.06 1017.5
18 03:53 N 7 10.00 Fair CLR 59 53.1 81% 30.04 1016.8
18 02:53 N 8 10.00 Fair CLR 61 52 72% 30.04 1016.7
18 01:53 N 8 10.00 Fair CLR 63 52 75.9 63 68% 30.03 1016.5
18 00:53 N 8 10.00 Fair CLR 64 52 65% 30.03 1016.3
17 23:53 N 9 10.00 Fair CLR 66 52 61% 30.01 1015.7
17 22:53 NW 12 G 18 10.00 Fair CLR 68 53.1 59% 29.99 1015.0
17 21:53 NW 8 10.00 Fair CLR 70 54 57% 29.97 1014.2
17 20:53 NW 8 10.00 Partly Cloudy SCT060 73.9 57 56% 29.95 1013.7
17 19:53 NW 12 G 18 10.00 Partly Cloudy SCT060 75 59 82.9 75 58% 77 29.93 1012.9
17 18:53 N 13 G 23 10.00 Mostly Cloudy BKN060 80.1 59 49% 81 29.9 1011.9
17 17:53 NW 10 G 22 10.00 Fair CLR 79 59 50% 80 29.89 1011.5
17 16:53 N 9 G 17 10.00 Mostly Cloudy SCT040 SCT048 BKN060 81 64.9 58% 83 29.88 1011.4
17 15:53 NW 8 10.00 Mostly Cloudy SCT065 BKN085 79 63 58% 81 29.89 1011.5
17 14:53 N 15 G 26 10.00 Mostly Cloudy SCT049 BKN060 78.1 63 60% 80 29.89 1011.6
17 13:53 W 5 10.00 A Few Clouds FEW043 80.1 63 81 68 56% 81 29.89 1011.5
17 12:53 SW 5 10.00 Fair CLR 79 63 58% 81 29.91 1012.1
17 11:53 Vrbl 6 10.00 Overcast OVC090 75 62.1 64% 77 29.91 1012.3
17 10:53 N 6 10.00 Overcast OVC100 73 62.1 69% 29.89 1011.8
17 09:53 N 7 10.00 Partly Cloudy SCT080 77 63 62% 79 29.89 1011.6
17 08:53 N 7 10.00 Fair CLR 72 63 73% 29.9 1011.8
17 07:53 NW 3 10.00 Mostly Cloudy FEW060 SCT075 BKN100 68 63 72 66 84% 29.9 1011.8
17 06:53 NW 3 10.00 Partly Cloudy SCT110 68 64 87% 29.88 1011.1
17 05:53 Calm 8.00 Fair CLR 68 64 87% 29.86 1010.4
17 04:53 N 3 10.00 Fair CLR 70 64 82% 29.84 1009.9
17 03:53 NW 6 10.00 Mostly Cloudy BKN080 70 64.9 84% 29.85 1010.2
17 02:53 NW 6 10.00 Fair CLR 71.1 66 84% 29.84 1009.8
17 01:53 NW 6 9.00 Fair CLR 71.1 66.9 80.1 71.1 87% 29.85 1010.2
17 00:53 NW 6 10.00 Fair CLR 72 68 87% 29.83 1009.4
16 23:53 NW 7 10.00 Fair CLR 71.1 66.9 87% 29.83 1009.5
16 22:53 W 5 10.00 Fair CLR 72 68 87% 29.83 1009.4
16 21:53 NW 7 10.00 Fair CLR 75.9 69.1 79% 77 29.82 1009.3
16 20:53 NW 5 10.00 Partly Cloudy FEW039 SCT050 SCT060 77 69.1 77% 79 29.8 1008.6
16 19:53 NW 8 10.00 Mostly Cloudy FEW037 SCT060 BKN070 79 69.1 86 79 72% 82 29.79 1008.1
16 18:53 W 12 10.00 Fair CLR 84 69.1 61% 88 29.78 1007.6
16 17:53 W 12 10.00 A Few Clouds FEW041 84.9 69.1 59% 89 29.79 1008.1
16 16:53 W 12 G 17 10.00 Mostly Cloudy SCT045 BKN055 84.9 69.1 59% 89 29.8 1008.3
16 15:53 W 10 10.00 Partly Cloudy SCT045 86 69.1 57% 90 29.79 1008.1
Date Time (edt) Wind (mph) Vis. (mi.) Weather Sky Cond. Air Dwpt Max. Min. Relative Humidity Wind Chill (°F) Heat Index (°F) altimeter (in) sea level (mb) 1 hr 3 hr 6 hr
6 hour
Temperature (ºF) Pressure Precipitation (in)